D2913 Weather Reports


Display with metric or nautical units.
time (UTC)temp
F
wind
direction
speed
MPH
gust
MPH
rain 1hr
in
rain 24hr
in
rain mn
in
humidity
%
barometer
mb
20260510174016 57 0 0.0 0.0 0.08 0.08 0.08 90 1006.4
20260510173517 57 0 0.0 0.0 0.08 0.08 0.08 89 1006.2
20260510173017 57 0 0.0 0.0 0.08 0.08 0.08 89 1006.3
20260510172535 58 0 0.0 0.0 0.07 0.07 0.07 89 1006.1
20260510172016 58 0 0.0 0.0 0.06 0.06 0.06 90 1006.3
20260510171516 57 0 0.0 0.0 0.06 0.06 0.06 90 1006.0
20260510171017 57 0 0.0 0.0 0.05 0.05 0.05 90 1006.2
20260510170516 58 0 0.0 0.0 0.04 0.04 0.04 90 1006.3
20260510165516 59 0 0.0 0.0 0.02 0.02 0.02 90 1006.1
20260510165016 59 0 0.0 0.0 0.01 0.01 0.01 90 1006.3
20260510164516 60 0 0.0 0.0 0.00 0.00 0.00 89 1006.3
20260510164016 61 0 0.0 0.0 0.00 0.00 0.00 89 1006.4
20260510163516 62 0 0.0 0.0 0.00 0.00 0.00 87 1006.6
20260510163016 63 0 0.0 0.0 0.00 0.00 0.00 85 1006.6
20260510162516 65 0 0.0 0.0 0.00 0.00 0.00 83 1006.6
20260510162016 69 0 0.0 0.0 0.00 0.00 0.00 79 1007.5
20260510161516 69 0 0.0 0.0 0.00 0.00 0.00 78 1007.2
20260510161016 70 0 0.0 0.0 0.00 0.00 0.00 77 1007.3
20260510160516 70 0 0.0 0.0 0.00 0.00 0.00 77 1007.3
20260510155516 70 0 0.0 0.0 0.00 0.00 0.00 77 1007.4
20260510154517 70 0 0.0 0.0 0.00 0.00 0.00 76 1007.4
20260510154017 71 0 0.0 0.0 0.00 0.00 0.00 77 1007.5
20260510153517 71 0 0.0 0.0 0.00 0.00 0.00 76 1007.6
20260510153016 71 0 0.0 0.0 0.00 0.00 0.00 76 1007.6
20260510151542 72 0 0.0 0.0 0.00 0.00 0.00 75 1007.9
20260510151017 72 0 0.0 0.0 0.00 0.00 0.00 75 1008.0
20260510150516 73 0 0.0 0.0 0.00 0.00 0.00 75 1008.2
20260510150017 73 0 0.0 0.0 0.00 0.00 0.00 75 1008.3
20260510145516 73 0 0.0 0.0 0.00 0.00 0.00 75 1008.3
20260510145016 73 0 0.0 0.0 0.00 0.00 0.00 75 1008.3
20260510144517 73 0 0.0 0.0 0.00 0.00 0.00 74 1008.4
20260510144016 74 0 0.0 0.0 0.00 0.00 0.00 74 1008.3
20260510143517 74 0 0.0 0.0 0.00 0.00 0.00 74 1008.4
20260510142516 74 0 0.0 0.0 0.00 0.00 0.00 75 1008.4
20260510142016 74 0 0.0 0.0 0.00 0.00 0.00 75 1008.6
20260510141517 74 0 0.0 0.0 0.00 0.00 0.00 75 1008.5
20260510141017 74 0 0.0 0.0 0.00 0.00 0.00 75 1008.6
20260510140017 74 0 0.0 0.0 0.00 0.00 0.00 74 1008.8
20260510135516 74 0 0.0 0.0 0.00 0.00 0.00 75 1008.8
20260510135016 74 0 0.0 0.0 0.00 0.00 0.00 75 1008.9
20260510134016 73 0 0.0 0.0 0.00 0.00 0.00 75 1009.0
20260510133516 73 0 0.0 0.0 0.00 0.00 0.00 75 1009.0
20260510133017 73 0 0.0 0.0 0.00 0.00 0.00 74 1009.1
20260510132516 73 0 0.0 0.0 0.00 0.00 0.00 75 1009.0
20260510131517 72 0 0.0 0.0 0.00 0.00 0.00 75 1009.1
20260510130017 71 0 0.0 0.0 0.00 0.00 0.00 75 1009.1
20260510125516 71 0 0.0 0.0 0.00 0.00 0.00 76 1009.1
20260510125016 71 0 0.0 0.0 0.00 0.00 0.00 76 1009.1
20260510124516 71 0 0.0 0.0 0.00 0.00 0.00 76 1009.1
20260510124016 71 0 0.0 0.0 0.00 0.00 0.00 76 1009.3
20260510123517 71 0 0.0 0.0 0.00 0.00 0.00 75 1009.3
20260510123018 71 0 0.0 0.0 0.00 0.00 0.00 76 1009.4
20260510122518 71 0 0.0 0.0 0.00 0.00 0.00 76 1009.4
20260510122016 71 0 0.0 0.0 0.00 0.00 0.00 75 1009.5
20260510121517 72 0 0.0 0.0 0.00 0.00 0.00 75 1009.6
20260510120516 71 0 0.0 0.0 0.00 0.00 0.00 76 1009.5
20260510120016 71 0 0.0 0.0 0.00 0.00 0.00 77 1009.5
20260510115516 71 0 0.0 0.0 0.00 0.00 0.00 78 1009.5
20260510115017 71 0 0.0 0.0 0.00 0.00 0.00 78 1009.5
20260510114517 70 0 0.0 0.0 0.00 0.00 0.00 78 1009.6
20260510114016 70 0 0.0 0.0 0.00 0.00 0.00 78 1009.6
20260510113516 70 0 0.0 0.0 0.00 0.00 0.00 78 1009.7
20260510113017 70 0 0.0 0.0 0.00 0.00 0.00 77 1009.7
20260510112016 71 0 0.0 0.0 0.00 0.00 0.00 78 1009.9
20260510111516 71 0 0.0 0.0 0.00 0.00 0.00 78 1010.2
20260510111016 71 0 0.0 0.0 0.00 0.00 0.00 78 1010.5
20260510110517 71 0 0.0 0.0 0.00 0.00 0.00 78 1010.5
20260510110017 71 0 0.0 0.0 0.00 0.00 0.00 79 1010.5
20260510105516 71 0 0.0 0.0 0.00 0.00 0.00 80 1010.6
20260510104516 69 0 0.0 0.0 0.00 0.00 0.00 80 1010.5
20260510104021 69 0 0.0 0.0 0.00 0.00 0.00 80 1010.5
20260510103517 69 0 0.0 0.0 0.00 0.00 0.00 80 1010.5
20260510103017 69 0 0.0 0.0 0.00 0.00 0.00 81 1010.5
20260510102516 68 0 0.0 0.0 0.00 0.00 0.00 82 1010.3
20260510102016 67 0 0.0 0.0 0.00 0.00 0.00 81 1010.3
20260510101516 67 0 0.0 0.0 0.00 0.00 0.00 83 1010.3
20260510101016 67 0 0.0 0.0 0.00 0.00 0.00 82 1010.2
20260510100517 66 0 0.0 0.0 0.00 0.00 0.00 82 1010.2
20260510100016 66 0 0.0 0.0 0.00 0.00 0.00 82 1010.2
20260510095016 66 0 0.0 0.0 0.00 0.00 0.00 82 1010.5
20260510094517 66 0 0.0 0.0 0.00 0.00 0.00 82 1010.5
20260510094017 66 0 0.0 0.0 0.00 0.00 0.00 81 1010.6
20260510093016 66 0 0.0 0.0 0.00 0.00 0.00 81 1010.6
20260510092517 66 0 0.0 0.0 0.00 0.00 0.00 81 1010.6
20260510092016 66 0 0.0 0.0 0.00 0.00 0.00 81 1010.5
20260510091516 66 0 0.0 0.0 0.00 0.00 0.00 82 1010.6
20260510091016 65 0 0.0 0.0 0.00 0.00 0.00 83 1010.3
20260510090517 65 0 0.0 0.0 0.00 0.00 0.00 82 1010.3
20260510090016 65 0 0.0 0.0 0.00 0.00 0.00 82 1010.5
20260510085516 65 0 0.0 0.0 0.00 0.00 0.00 83 1010.5
20260510085016 65 0 0.0 0.0 0.00 0.00 0.00 83 1010.5
20260510084516 65 0 0.0 0.0 0.00 0.00 0.00 82 1010.6
20260510084017 65 0 0.0 0.0 0.00 0.00 0.00 83 1010.6
20260510083516 66 0 0.0 0.0 0.00 0.00 0.00 83 1010.9
20260510083017 65 0 0.0 0.0 0.00 0.00 0.00 84 1010.8
20260510082516 65 0 0.0 0.0 0.00 0.00 0.00 83 1010.7
20260510082016 65 0 0.0 0.0 0.00 0.00 0.00 84 1010.7
20260510081517 65 0 0.0 0.0 0.00 0.00 0.00 85 1010.7
20260510080517 63 0 0.0 0.0 0.00 0.00 0.00 86 1010.5
20260510080017 62 0 0.0 0.0 0.00 0.00 0.00 86 1010.5
20260510075516 62 0 0.0 0.0 0.00 0.00 0.00 86 1010.3
20260510075016 62 0 0.0 0.0 0.00 0.00 0.00 87 1010.5
20260510074516 61 0 0.0 0.0 0.00 0.00 0.00 87 1010.6
20260510074016 61 0 0.0 0.0 0.00 0.00 0.00 87 1010.5
20260510073516 60 0 0.0 0.0 0.00 0.00 0.00 88 1010.5
20260510073017 60 0 0.0 0.0 0.00 0.00 0.00 88 1010.3
20260510072517 60 0 0.0 0.0 0.00 0.00 0.00 88 1010.3
20260510071516 58 0 0.0 0.0 0.00 0.00 0.00 89 1010.3
20260510071016 58 0 0.0 0.0 0.00 0.00 0.00 90 1010.1
20260510070516 57 0 0.0 0.0 0.00 0.00 0.00 90 1010.1
20260510065517 57 0 0.0 0.0 0.00 0.00 0.00 90 1010.1
20260510065016 56 0 0.0 0.0 0.00 0.00 0.00 90 1010.0
20260510064516 56 0 0.0 0.0 0.00 0.00 0.00 90 1010.0
20260510064017 56 0 0.0 0.0 0.00 0.00 0.00 90 1010.1
20260510063517 56 0 0.0 0.0 0.00 0.00 0.00 89 1010.1
20260510063017 57 0 0.0 0.0 0.00 0.00 0.00 89 1010.3
20260510062517 57 0 0.0 0.0 0.00 0.00 0.00 88 1010.5
20260510062017 57 0 0.0 0.0 0.00 0.00 0.00 89 1010.5
20260510061517 57 0 0.0 0.0 0.00 0.00 0.00 89 1010.5
20260510061016 57 0 0.0 0.0 0.00 0.00 0.00 89 1010.5
20260510060516 57 0 0.0 0.0 0.00 0.00 0.00 89 1010.5
20260510060017 56 0 0.0 0.0 0.00 0.00 0.00 90 1010.6
20260510055516 56 0 0.0 0.0 0.00 0.00 0.00 90 1010.3
20260510055016 55 0 0.0 0.0 0.00 0.00 0.00 90 1010.3
20260510054517 55 0 0.0 0.0 0.00 0.00 0.00 91 1010.2
20260510054017 54 0 0.0 0.0 0.00 0.00 0.00 91 1010.2
20260510053516 53 0 0.0 0.0 0.00 0.00 0.00 90 1010.2
20260510052517 51 0 0.0 0.0 0.00 0.00 0.00 90 1010.1
20260510052017 51 0 0.0 0.0 0.00 0.00 0.00 90 1009.9
20260510051516 50 0 0.0 0.0 0.00 0.00 0.00 88 1009.8
20260510051016 49 0 0.0 0.0 0.00 0.00 0.00 87 1009.7
20260510050016 47 0 0.0 0.0 0.00 0.00 0.00 87 1009.4
20260510045517 47 0 0.0 0.0 0.00 0.00 0.00 84 1009.4
20260510045016 47 0 0.0 0.0 0.00 0.00 0.00 81 1009.3
20260510044516 46 0 0.0 0.0 0.00 0.00 0.00 82 1009.2
20260510044016 45 0 0.0 0.0 0.00 0.00 0.00 82 1009.2
20260510043517 44 0 0.0 0.0 0.00 0.00 0.00 85 1009.1
20260510043016 44 0 0.0 0.0 0.00 0.00 0.00 85 1009.2
20260510042517 44 0 0.0 0.0 0.00 0.00 0.00 84 1009.1
20260510041516 44 0 0.0 0.0 0.00 0.00 0.00 86 1009.2
20260510041016 43 0 0.0 0.0 0.00 0.00 0.00 86 1009.2
20260510040517 43 0 0.0 0.0 0.00 0.00 0.00 87 1009.2
20260510035517 43 0 0.0 0.0 0.00 0.00 0.00 90 1009.1
20260510035016 44 0 0.0 0.0 0.00 0.00 0.00 89 1009.1
20260510034517 45 0 0.0 0.0 0.00 0.00 0.00 89 1009.3
20260510034016 45 0 0.0 0.0 0.00 0.00 0.00 88 1009.4
20260510033017 45 0 0.0 0.0 0.00 0.00 0.00 88 1009.4
20260510032517 45 0 0.0 0.0 0.00 0.00 0.00 89 1009.5
20260510031516 45 0 0.0 0.0 0.00 0.00 0.00 89 1009.6
20260510031017 45 0 0.0 0.0 0.00 0.00 0.00 90 1009.6
20260510030516 45 0 0.0 0.0 0.00 0.00 0.00 90 1009.7
20260510030016 46 0 0.0 0.0 0.00 0.00 0.00 90 1009.8
20260510025517 46 0 0.0 0.0 0.00 0.00 0.00 89 1009.8
20260510025016 46 0 0.0 0.0 0.00 0.00 0.00 89 1009.8
20260510024516 46 0 0.0 0.0 0.00 0.00 0.00 89 1009.7
20260510024017 46 0 0.0 0.0 0.00 0.00 0.00 90 1009.8
20260510023516 46 0 0.0 0.0 0.00 0.00 0.00 91 1009.9
20260510023016 46 0 0.0 0.0 0.00 0.00 0.00 91 1009.9
20260510022516 47 0 0.0 0.0 0.00 0.00 0.00 91 1009.9
20260510022016 47 0 0.0 0.0 0.00 0.00 0.00 91 1009.9
20260510021516 47 0 0.0 0.0 0.00 0.00 0.00 91 1009.9
20260510021016 47 0 0.0 0.0 0.00 0.00 0.00 91 1009.9
20260510020516 47 0 0.0 0.0 0.00 0.00 0.00 91 1009.9
20260510020017 47 0 0.0 0.0 0.00 0.00 0.00 91 1010.0
20260510015017 48 0 0.0 0.0 0.00 0.00 0.00 91 1010.3
20260510014517 49 0 0.0 0.0 0.00 0.00 0.00 91 1010.6
20260510014016 49 0 0.0 0.0 0.00 0.00 0.00 91 1010.6
20260510013517 49 0 0.0 0.0 0.00 0.00 0.00 90 1010.7
20260510012016 50 0 0.0 0.0 0.00 0.00 0.00 90 1011.0
20260510011516 50 0 0.0 0.0 0.00 0.00 0.00 90 1010.9
20260510011016 50 0 0.0 0.0 0.00 0.00 0.00 90 1011.1
20260510010535 50 0 0.0 0.0 0.00 0.00 0.00 90 1010.9
20260510010016 50 0 0.0 0.0 0.00 0.00 0.00 91 1011.0
20260510005517 50 0 0.0 0.0 0.00 0.00 0.00 91 1011.0
20260510005016 50 0 0.0 0.0 0.00 0.00 0.00 91 1010.9
20260510004516 50 0 0.0 0.0 0.00 0.00 0.00 90 1010.9
20260510004016 50 0 0.0 0.0 0.00 0.00 0.00 90 1010.8
20260510003516 50 0 0.0 0.0 0.00 0.00 0.00 90 1010.9
20260510003017 51 0 0.0 0.0 0.00 0.00 0.00 89 1011.1
20260510002516 52 0 0.0 0.0 0.00 0.00 0.00 88 1011.2
20260510002016 53 0 0.0 0.0 0.00 0.00 0.00 88 1011.5
20260510001516 53 0 0.0 0.0 0.00 0.00 0.00 88 1011.5
20260510001016 53 0 0.0 0.0 0.00 0.00 0.00 88 1011.7
20260510000516 53 0 0.0 0.0 0.00 0.00 0.00 88 1011.6
20260509235517 54 0 0.0 0.0 0.00 0.00 0.00 88 1011.8
20260509235016 54 0 0.0 0.0 0.00 0.00 0.00 87 1011.9
20260509234516 54 0 0.0 0.0 0.00 0.00 0.00 87 1012.0
20260509233516 55 0 0.0 0.0 0.00 0.00 0.00 87 1012.3
20260509233016 55 0 0.0 0.0 0.00 0.00 0.00 87 1012.3
20260509232516 55 0 0.0 0.0 0.00 0.00 0.00 87 1012.4
20260509232016 55 0 0.0 0.0 0.00 0.00 0.00 87 1012.4
20260509231516 55 0 0.0 0.0 0.00 0.00 0.00 87 1012.5
20260509230516 55 0 0.0 0.0 0.00 0.00 0.00 87 1012.5
20260509230016 55 0 0.0 0.0 0.00 0.00 0.00 87 1012.4
20260509225017 55 0 0.0 0.0 0.00 0.00 0.00 87 1012.6
20260509224516 55 0 0.0 0.0 0.00 0.00 0.00 87 1012.5
20260509224016 55 0 0.0 0.0 0.00 0.00 0.00 87 1012.7
20260509223516 55 0 0.0 0.0 0.00 0.00 0.00 87 1012.6
20260509223031 55 0 0.0 0.0 0.00 0.00 0.00 86 1012.7
20260509222516 56 0 0.0 0.0 0.00 0.00 0.00 86 1012.8
20260509221516 56 0 0.0 0.0 0.00 0.00 0.00 85 1012.8
20260509221016 56 0 0.0 0.0 0.00 0.00 0.00 85 1012.8
20260509220517 56 0 0.0 0.0 0.00 0.00 0.00 85 1012.9
20260509220017 57 0 0.0 0.0 0.00 0.00 0.00 85 1012.9
20260509215516 57 0 0.0 0.0 0.00 0.00 0.00 85 1012.9
20260509215017 57 0 0.0 0.0 0.00 0.00 0.00 85 1012.9
20260509214517 57 0 0.0 0.0 0.00 0.00 0.00 85 1013.0
20260509214016 57 0 0.0 0.0 0.00 0.00 0.00 85 1013.0
20260509213516 57 0 0.0 0.0 0.00 0.00 0.00 85 1013.1
20260509213017 57 0 0.0 0.0 0.00 0.00 0.00 85 1013.1
20260509212516 57 0 0.0 0.0 0.00 0.00 0.00 85 1013.1
20260509212016 58 0 0.0 0.0 0.00 0.00 0.00 85 1013.2
20260509211016 58 0 0.0 0.0 0.00 0.00 0.00 85 1013.2
20260509210017 58 0 0.0 0.0 0.00 0.00 0.00 85 1013.3
20260509205517 58 0 0.0 0.0 0.00 0.00 0.00 85 1013.3
20260509205016 58 0 0.0 0.0 0.00 0.00 0.00 85 1013.5
20260509203516 59 0 0.0 0.0 0.00 0.00 0.00 85 1013.6
20260509203017 59 0 0.0 0.0 0.00 0.00 0.00 85 1013.7
20260509202516 59 0 0.0 0.0 0.00 0.00 0.00 85 1013.6
20260509202016 59 0 0.0 0.0 0.00 0.00 0.00 85 1013.6
20260509201531 59 0 0.0 0.0 0.00 0.00 0.00 85 1013.9
20260509201016 59 0 0.0 0.0 0.00 0.00 0.00 85 1013.7
20260509200517 60 0 0.0 0.0 0.00 0.00 0.00 85 1013.9
20260509195517 60 0 0.0 0.0 0.00 0.00 0.00 84 1014.0
20260509195016 60 0 0.0 0.0 0.00 0.00 0.00 84 1014.0
20260509194516 61 0 0.0 0.0 0.00 0.00 0.00 84 1014.1
20260509194016 61 0 0.0 0.0 0.00 0.00 0.00 84 1014.1
20260509193516 61 0 0.0 0.0 0.00 0.00 0.00 84 1014.1
20260509193017 61 0 0.0 0.0 0.00 0.00 0.00 84 1014.1
20260509192517 61 0 0.0 0.0 0.00 0.00 0.00 83 1014.0
20260509192017 62 0 0.0 0.0 0.00 0.00 0.00 83 1013.9
20260509191516 62 0 0.0 0.0 0.00 0.00 0.00 83 1014.0
20260509190516 63 0 0.0 0.0 0.00 0.00 0.00 82 1014.1
20260509190017 63 0 0.0 0.0 0.00 0.00 0.00 82 1014.1
20260509185517 63 0 0.0 0.0 0.00 0.00 0.00 82 1014.2
20260509185016 63 0 0.0 0.0 0.00 0.00 0.00 82 1014.3
20260509184516 64 0 0.0 0.0 0.00 0.00 0.00 81 1014.2
20260509184016 64 0 0.0 0.0 0.00 0.00 0.00 81 1014.3
20260509183516 64 0 0.0 0.0 0.00 0.00 0.00 80 1014.2
20260509183016 65 0 0.0 0.0 0.00 0.00 0.00 80 1014.3
20260509182517 65 0 0.0 0.0 0.00 0.00 0.00 80 1014.4
20260509182017 66 0 0.0 0.0 0.00 0.00 0.00 80 1014.4
20260509181517 66 0 0.0 0.0 0.00 0.00 0.00 79 1014.4
20260509181017 66 0 0.0 0.0 0.00 0.00 0.00 79 1014.4
20260509180016 67 0 0.0 0.0 0.00 0.00 0.00 79 1014.6
20260509175017 67 0 0.0 0.0 0.00 0.00 0.00 78 1014.6
20260509174517 67 0 0.0 0.0 0.00 0.00 0.00 78 1014.7